Location: Dumpton Point
(51.3500°N, 1.4433°E)
Time: 18:53:35
(UTC+00:00)

STARLINK-60 - Pass Details

Date: 09 April 2020
Orbit: 387 x 398 km, 53.0° (Epoch: 04 June)

Event Time Altitude Azimuth Distance (km) Brightness Sun altitude
Rises 20:08:51 0° 250° (WSW) 2,367 7.5 -13.4°
Reaches altitude 10° 20:10:57 10° 250° (WSW) 1,502 6.4 -13.6°
Maximum altitude 20:14:19 86° 164° (SSE) 424 3.0 -14.1°
Enters shadow 20:16:38 19° 74° (ENE) 1,071 4.7 -14.4°
